Regional Weather Roundup
Issued by NWS Wakefield, VA

Home | Current Version | Previous Version | Graphics & Text | Print | Product List | Glossary On
Versions: 1 2 3 4 5 6 7 8 9 10 11 12 13 14 15 16 17 18 19 20 21 22 23 24 25 26 27 28 29 30 31 32 33 34 35 36 37 38 39 40 41 42 43 44 45 46 47 48 49 50
000
ASUS41 KAKQ 290615
RWRAKQ

REGIONAL WEATHER ROUNDUP
NATIONAL WEATHER SERVICE WAKEFIELD VA
200 AM EDT SAT APR 29 2017

Note: "fair" indicates few or no clouds below 12,000 feet with no
significant weather and/or obstructions to visibility. * = Denotes
station may not report precipitation (e.g., rain,snow,etc.),
thunder or fog.

VAZ042-051-052>054-056-290700-
NORTHERN VIRGINIA

CITY           SKY/WX    TMP DP  RH WIND       PRES   REMARKS
WASH NATIONAL  CLOUDY    70  68  93 SE3       30.01S
DULLES         CLOUDY    67  63  87 CALM      30.01S
FORT BELVOIR   CLOUDY    66  64  92 CALM      30.01R
QUANTICO       CLOUDY    71  68  90 SW5       30.02R
FREDERICKSBRG* CLOUDY    74  68  82 S7        30.01S
STAFFORD*      CLOUDY    66  66  99 S5        30.06R
WARRENTON      CLOUDY    71  63  77 CALM      30.01S
CULPEPER*      CLOUDY    71  66  84 CALM      30.03R
MANASSAS*        N/A     70  65  84 CALM      30.02R
LEESBURG*      CLOUDY    72  68  88 S7        30.01F
WINCHESTER     CLOUDY    64  59  82 W3        30.01R
FRONT ROYAL*   CLOUDY    66  61  82 W3        30.00S
LURAY*         CLOUDY    72  63  73 SW9       30.02S
$$

VAZ048-049-060>072-079>083-290700-
CENTRAL AND SOUTH CENTRAL VIRGINIA

CITY           SKY/WX    TMP DP  RH WIND       PRES   REMARKS
RICHMOND       CLOUDY    75  72  90 S13       30.04S
CHESTERFIELD*  FAIR     N/A N/A N/A S8        30.05F
PETERSBURG*    CLOUDY    73  69  89 CALM      30.06S
HANOVER        CLOUDY    75  67  76 S10       30.05R
TAPPAHANNOCK*  CLOUDY    76  68  75 S10       30.03F
QUINTON*       FAIR      75  74  95 S8        30.04S
CHARLOTTSVILLE MOCLDY    72  66  81 S9        30.03R
GORDONSVILLE*  CLOUDY    65  64  97 CALM      30.03S
ORANGE*        CLOUDY    70  64  83 SW6       30.03S
LOUISA*        CLOUDY    79  70  73 S5        30.04R
BUMPASS*       MOCLDY    73  69  88 CALM      30.04R
FARMVILLE*     CLOUDY    73  68  85 W3        30.05R
CREWE*         FAIR      73  73 100 S5        30.05R
FORT PICKETT*  NOT AVBL
CHASE CITY*    FAIR      73  71  95 S6        30.07S
CLARKSVILLE*   FAIR      72  72 100 S9        30.06F
SOUTH HILL*    CLEAR     73  73  98 S10G16    30.12F
LAWRENCEVILLE* FAIR      74  72  93 S9        30.06F
EMPORIA*         N/A     73  72  94 SE7       30.08F
$$

VAZ088>098-290700-
SOUTHEAST VIRGINIA

CITY           SKY/WX    TMP DP  RH WIND       PRES   REMARKS
NORFOLK        MOCLDY    76  72  87 S16       30.07F
VIRGINIA BEACH CLOUDY    75  71  87 SW14      30.07F
NORFOLK NAVAL  PTCLDY    76  72  87 S12G17    30.08F
WEST POINT*    CLOUDY    76  71  82 S7        30.06S
SALUDA*        FAIR      74  73  96 S6        30.04S
NEWPORT NEWS   CLEAR     78  72  81 S13       30.06F
LANGLEY AFB    CLEAR     76  74  94 S13       30.06F
FORT EUSTIS    CLEAR     76  72  88 S6        30.03F
WILLIAMSBURG*  CLOUDY    77  73  88 S5        30.06F
HR EXEC AP*    CLOUDY    75  70  83 SW12G17   30.06F
FRANKLIN*      CLOUDY    74  72  91 S9G16     30.08F
US460-WAKEFLD  PTCLDY    76  73  91 S6        30.06F
$$

VAZ020-022-025-037-045-290700-
WEST CENTRAL AND SOUTHWEST VIRGINIA

CITY           SKY/WX    TMP DP  RH WIND       PRES   REMARKS
STAUNTON*      CLOUDY    65  61  85 S3        30.07S
WAYNESBORO*    CLOUDY    73  64  74 SW10      30.07S
HOT SPRINGS VA CLOUDY    64  54  68 SW14G20   30.17S
LYNCHBURG      CLOUDY    67  64  90 CALM      30.10R
DANVILLE       CLEAR     71  68  90 SW8       30.07F
SOUTH BOSTON*  FAIR      71  70  95 S6        30.06S
MARTINSVILLE   CLEAR     69  63  81 SW3       30.10S
ROANOKE        CLEAR     74  63  68 SW8       30.09R
BLACKSBURG     CLEAR     69  62  77 W3        30.15S
DUBLIN*        CLEAR     67  58  72 W5        30.14R
MARION*        CLEAR     63  60  90 CALM      30.17R
HILLSVILLE*    CLEAR     67  64  88 CALM      30.15S
RICHLANDS*     FAIR      70  58  67 CALM      30.13R
WISE*          CLOUDY    70  57  64 S10G16    30.12R
ABINGDON*      CLEAR     65  61  88 CALM      30.11S
$$

MDZ021>025-VAZ099-100-290700-
SOUTHERN MARYLAND AND THE DELMARVA PENINSULA

CITY           SKY/WX    TMP DP  RH WIND       PRES   REMARKS
PATUXENT RIVER CLOUDY    72  71  97 S7        30.02F
BAY BRIDGE APT CLOUDY    68  64  88 W3        30.02R
LEONARDTOWN    CLOUDY    72  68  88 SW6       30.04S
DOVER          CLEAR     64  64 100 E5        30.01F
GEORGETOWN     CLOUDY    72  68  87 S8        30.03F
EASTON         CLOUDY    74  68  82 S9        30.05F
CAMBRIDGE        N/A     72  70  94 S6        30.03S
SALISBURY      CLEAR     71  70  96 S8        30.04F
OCEAN CITY     MOCLDY    65  63  93 SW7       30.05F FOG
WALLOPS ISLAND CLOUDY    69  69 100 S9        30.06F FOG
ACCOMACK*      CLEAR     72  70  95 S7        30.06F
$$

NCZ012>017-030>032-290700-
NORTH CENTRAL AND EASTERN NORTH CAROLINA

CITY           SKY/WX    TMP DP  RH WIND       PRES   REMARKS
ROANOKE RAPIDS CLOUDY    73  73 100 S9        30.09F
RALEIGH        PTCLDY    76  72  87 S10       30.11S
ELIZABETH CITY PTCLDY    74  73  97 S12       30.12S
AHOSKIE*         N/A     74  72  92 S5        30.11S
EDENTON*       CLOUDY    76  73  88 SW10      30.13F
CURRITUCK*     CLOUDY    76  76 100 SW8       30.12S
KILL DEVIL HLS CLEAR     73  73 100 S5        30.12F
MANTEO         MOCLDY    73  72  95 SW20      30.14F
CAPE HATTERAS  CLOUDY    74  72  93 SW9       30.17F FOG
TARBORO*       NOT AVBL
GOLDSBORO      MOCLDY    75  75 100 S12       30.11F
WASHINGTON     MOCLDY    74  72  92 S8G16     30.13F
GREENVILLE     MOCLDY    73  73 100 SW10      30.13F
NEW BERN       CLOUDY    75  73  93 S8        30.16F
WILMINGTON     MOCLDY    75  73  93 S9        30.16F
$$

VAZ048-290700-
ELSEWHERE

CITY           SKY/WX    TMP DP  RH WIND       PRES   REMARKS
HARRISBURG PA  CLOUDY    69  61  75 NE6       30.00F
BALTIMORE      CLOUDY    69  68  96 SE3       30.01R
ANNAPOLIS      CLOUDY    70  69  97 S9        30.01S
ANDREWS AFB    CLOUDY    71  67  87 S7        30.01R
PHILADELPHIA   CLOUDY    68  60  75 N3        30.04F
HENDERSON NC   CLEAR     71  68  91 S12       30.08F
GREENSBORO     PTCLDY    73  71  93 S10       30.09S
ROCKY MOUNT    CLOUDY    76  73  91 S13       30.11F
$$

VAZ100-290700-
MARINE

STATION/POSITION TIME  TEMP    WIND        PRES    WAVE   SWELL
                       AIR SEA DIR/SP/G            HT/PER HT/PER
                 (UTC) (F)     (DEG/KT/KT) (MB)    (FT/S) (FT/S)
CAPE MAY NJ      0548      60  140/  6/  8 1016.7F
LEWES DE         0548      59  180/  4/  6 1016.8F
15NM E FENWICK I 0550   58 55  200/ 10/ 14 1018.2F   4/ 8   3/ 8
OCEAN-CITY-INLET 0548      54  200/ 10/ 12 1018.1F
WACHAPREAGUE VA  0548      70  190/  6/ 12 1017.6F
THOMAS POINT MD  0600   65 61  200/  7/  7   N/A
GOOSES REEF MD   0600   65 57  150/ 12/ 12 1017.0    1/ 2
COVE POINT MD    0548          200/ 13/ 14 1017.0F
SOLOMONS ISLAND  0548      63  180/  7/  8   N/A
BISHOPS HEAD MD  0548      70  180/ 16/ 19 1017.1F
PINEY POINT MD   0548          160/  7/  8   N/A
POTOMAC MD       0600   69 65  190/ 10/ 14 1016.0    1
CAMBRIDGE MD     0542      68                N/A
LEWISETTA VA     0548      69  200/ 11/ 12 1016.3F
RAPPAHANNOCK LGT 0548          180/ 19/ 20 1018.1F
STINGRAY PT      0600   67 64  190/ 12/ 14 1017.2
YORK RVR RNG VA  0548          200/ 17/ 19 1016.9F
YORKTOWN VA      0548      65  200/ 10/ 15 1017.1F
JAMESTOWN VA     0600   76 70  190/  8/ 14   N/A
DOMINION TERM VA 0548          190/ 11/ 14 1018.3F
KIPTOPEKE VA     0548      65  170/  9/ 10   N/A
CHES BAY BRIDGE  0548      62  220/ 15/ 18 1018.2F
CAPE HENRY VA    0548          190/  8/ 14   N/A
WILLOUBY STN VA  0548          200/ 16/ 18 1019.1F
S CRANEY ISL VA  0548          200/ 12/ 16 1018.3F
CAPE HENRY BUOY  0542      63                N/A     3/ 8
1ST LANDING BUOY 0600   70 62              1018.4    1/ 3
CAPE CHARLES BUO 0551      62                N/A     3/ 9
64NM E OF VA BCH 0550   62 57  210/ 14/ 16 1020.5F   4/ 8   2/ 8
DUCK PIER NC     0548      57  200/ 14/ 18 1019.7S
44100 DUCK FRF   0535      62                N/A     3/ 6
44056 DUCK FRF   0530      59                N/A     2/ 8
OREGON INLET NC  0542      76  200/ 18/ 21 1020.7F
HATTERAS NC      0548      72  190/  5/  9 1021.5F
DIAMOND SHLS NC  0550   77 76  200/ 17/ 19 1021.8F   4/ 8   2/ 8
CAPE LOOKOUT NC  0600   73     190/  7/  9 1021.4F
$$



USA.gov is the U.S. government's official web portal to all federal, state and local government web resources and services.